• Join FlightAware (Why Join?)
  • Login
  • US Flag 
05:34AM EDT


 

Airport Tracker/Info


-or-


 

Live Flight TrackerFlight Track Log ✈ FDX437 ✈ 26-Apr-2013 ✈ KCLE - KLCK

Flight Track Log - Related Links

Times and Time Zones

All times are in EDT time to prevent confusion due to time zone crossing. See the FDX437 flight status page for this flight to view local times or setup timezone preferences in your user account.

Time Position Orientation Groundspeed Altitude Reporting Facility
EDT Latitude Longitude Course Direction KTS MPH feet Rate Location/Type
07:15AM 41.4003 -81.8675 215° Southwest 142 163 2,000  Level Cleveland Center
07:16AM 41.3772 -81.8892 215° Southwest 195 224 3,100 2,400 Climbing Cleveland Center
07:16AM 41.3625 -81.9056 220° Southwest 237 273 4,000 3,480 Climbing Cleveland Center
07:17AM 41.3222 -81.9433 215° Southwest 269 310 6,600 3,360 Climbing Cleveland Center
07:18AM 41.2717 -81.9894 214° Southwest 275 316 9,600 2,160 Climbing Cleveland Center
07:19AM 41.2003 -82.0458 211° Southwest 275 316 11,000 780 Climbing Cleveland Center
07:20AM 41.1097 -82.1017 205° Southwest 310 357 11,200 480 Climbing Cleveland Center
07:21AM 41.0175 -82.1489 201° Southwest 349 402 12,000 360 Climbing Cleveland Center
07:22AM 40.9250 -82.1989 202° Southwest 356 410 12,000  Level Cleveland Center
07:23AM 40.8283 -82.2489 201° Southwest 366 421 12,000 -120 Level Cleveland Center
07:24AM 40.7403 -82.2903 200° South 354 407 11,800 -780 Descending Cleveland Center
07:25AM 40.6025 -82.3581 200° South 316 364 10,000 -780 Descending Indianapolis Center
07:26AM 40.5342 -82.3928 201° Southwest 309 356 9,900 -720 Descending Indianapolis Center
07:27AM 40.4628 -82.4289 201° Southwest 273 314 8,700 -1,140 Descending Indianapolis Center
07:28AM 40.3933 -82.4678 203° Southwest 276 318 7,700 -1,080 Descending Indianapolis Center
07:29AM 40.3275 -82.5181 210° Southwest 271 312 6,600 -1,080 Descending Indianapolis Center
07:29AM 40.3136 -82.5264 205° Southwest 273 314 6,400 -1,020 Descending Indianapolis Center
07:30AM 40.2619 -82.5631 208° Southwest 268 308 5,600 -1,020 Descending Indianapolis Center
07:30AM 40.2483 -82.5711 204° Southwest 263 303 5,400 -1,140 Descending Indianapolis Center
07:31AM 40.1892 -82.6178 211° Southwest 262 302 4,400 -1,080 Descending Indianapolis Center
07:32AM 40.1300 -82.6603 209° Southwest 262 302 3,500 -1,020 Descending Indianapolis Center
07:32AM 40.1139 -82.6694 204° Southwest 262 302 3,200 -420 Descending Indianapolis Center
07:33AM 40.0664 -82.7050 210° Southwest 260 299 3,100 -240 Descending Indianapolis Center
07:34AM 40.0503 -82.7150 205° Southwest 260 299 3,000  Descending Indianapolis Center
07:34AM 40.0047 -82.7500 210° Southwest 245 282 3,100  Climbing Indianapolis Center
07:35AM 39.9889 -82.7586 203° Southwest 252 290 3,000 -360 Descending Indianapolis Center